Jackson, MN

2:16 PM CDT on April 25, 2018 (GMT -0500)
Jackson Municipal

Weather History for KMJQ - July, 2013

Change the Weather History Date:

Wednesday, July 17, 2013

  Actual Average Record
Temperature  
Mean Temperature 81 °F -  
Max Temperature 93 °F 79 °F 93 °F (2012)
Min Temperature 69 °F 60 °F 51 °F (2014)
Cooling Degree Days 16    
Growing Degree Days 31 (Base 50)    
Moisture  
Dew Point 65 °F    
Average Humidity 58    
Maximum Humidity 83    
Minimum Humidity 34    
Precipitation  
Precipitation 0.00 in - - ()
Sea Level Pressure  
Sea Level Pressure 30.26 in    
Wind  
Wind Speed 7 mph (SSW)    
Max Wind Speed 15 mph    
Max Gust Speed 18 mph    
Visibility 10 miles    
Events      
Averages and records for this station are not official NWS values.
T = Trace of Precipitation, MM = Missing Value Source: NWS Daily Summary

Daily Weather History Graph

Daily Weather History Graph

Search for Another Location

Airport or City:

Astronomy

Jul. 17, 2013 Rise Set
Actual Time 5:54 AM CDT 8:57 PM CDT
Civil Twilight 5:19 AM CDT 9:31 PM CDT
Nautical Twilight 4:35 AM CDT 10:15 PM CDT
Astronomical Twilight 3:43 AM CDT 11:07 PM CDT
Moon 3:45 PM CDT (7/17) 1:05 AM CDT (7/17)
Length of Visible Light 16h 11m
Length of Day
15h 03m
Waxing Gibbous, 67% of the Moon is Illuminated
Jul 17
Waxing Gibbous
Jul 22
Full
Jul 29
Last Quarter
Aug 6
New
Aug 14
First Quarter

Hourly Weather History & Observations

Time (CDT) Temp. Heat Index Dew Point Humidity Pressure Visibility Wind Dir Wind Speed Gust Speed Precip Events Conditions
12:14 AM 75.2 °F - 66.2 °F 73% 30.27 in 10.0 mi South 3.5 mph - N/A   Clear
12:33 AM 73.4 °F - 66.2 °F 78% 30.27 in 10.0 mi South 4.6 mph - N/A   Clear
12:54 AM 73.4 °F - 64.4 °F 73% 30.28 in 10.0 mi SSW 4.6 mph - N/A   Clear
1:14 AM 71.6 °F - 64.4 °F 78% 30.28 in 10.0 mi SSW 4.6 mph - N/A   Clear
1:33 AM 71.6 °F - 64.4 °F 78% 30.28 in 10.0 mi SSW 5.8 mph - N/A   Clear
1:54 AM 71.6 °F - 64.4 °F 78% 30.28 in 10.0 mi South 6.9 mph - N/A   Clear
2:14 AM 73.4 °F - 66.2 °F 78% 30.28 in 10.0 mi South 5.8 mph - N/A   Clear
2:33 AM 71.6 °F - 64.4 °F 78% 30.28 in 10.0 mi South 6.9 mph - N/A   Clear
2:54 AM 71.6 °F - 64.4 °F 78% 30.28 in 10.0 mi South 6.9 mph - N/A   Clear
3:13 AM 71.6 °F - 64.4 °F 78% 30.28 in 10.0 mi South 5.8 mph - N/A   Clear
3:34 AM 71.6 °F - 64.4 °F 78% 30.28 in 10.0 mi South 5.8 mph - N/A   Clear
3:54 AM 71.6 °F - 64.4 °F 78% 30.29 in 10.0 mi SSW 4.6 mph - N/A   Clear
4:13 AM 71.6 °F - 64.4 °F 78% 30.29 in 10.0 mi SSW 3.5 mph - N/A   Clear
4:34 AM 71.6 °F - 64.4 °F 78% 30.29 in 10.0 mi SSW 3.5 mph - N/A   Clear
4:54 AM 71.6 °F - 64.4 °F 78% 30.29 in 10.0 mi SSW 4.6 mph - N/A   Clear
5:14 AM 71.6 °F - 64.4 °F 78% 30.29 in 10.0 mi SSW 4.6 mph - N/A   Clear
5:34 AM 69.8 °F - 64.4 °F 83% 30.30 in 10.0 mi SSW 4.6 mph - N/A   Clear
5:54 AM 71.6 °F - 64.4 °F 78% 30.30 in 10.0 mi SSW 5.8 mph - N/A   Clear
6:13 AM 71.6 °F - 64.4 °F 78% 30.30 in 10.0 mi SSW 4.6 mph - N/A   Clear
6:34 AM 71.6 °F - 64.4 °F 78% 30.30 in 10.0 mi SSW 4.6 mph - N/A   Clear
6:54 AM 73.4 °F - 66.2 °F 78% 30.30 in 10.0 mi SSW 4.6 mph - N/A   Clear
7:13 AM 73.4 °F - 66.2 °F 78% 30.30 in 10.0 mi SSW 3.5 mph - N/A   Clear
7:34 AM 77.0 °F - 66.2 °F 69% 30.30 in 10.0 mi SSW 3.5 mph - N/A   Clear
7:54 AM 77.0 °F - 68.0 °F 74% 30.31 in 10.0 mi SW 8.1 mph - N/A   Clear
8:13 AM 78.8 °F - 68.0 °F 69% 30.31 in 10.0 mi SW 8.1 mph - N/A   Clear
8:34 AM 80.6 °F 83.2 °F 68.0 °F 65% 30.31 in 10.0 mi SW 9.2 mph - N/A   Clear
8:54 AM 80.6 °F 83.2 °F 68.0 °F 65% 30.32 in 10.0 mi SSW 10.4 mph - N/A   Clear
9:13 AM 82.4 °F 85.4 °F 68.0 °F 62% 30.31 in 10.0 mi SW 9.2 mph - N/A   Clear
9:34 AM 82.4 °F 84.6 °F 66.2 °F 58% 30.31 in 10.0 mi SW 11.5 mph - N/A   Clear
9:53 AM 84.2 °F 86.6 °F 66.2 °F 55% 30.31 in 10.0 mi SW 10.4 mph - N/A   Clear
10:14 AM 86.0 °F 88.2 °F 66.2 °F 51% 30.31 in 10.0 mi SW 8.1 mph - N/A   Clear
10:34 AM 86.0 °F 88.2 °F 66.2 °F 51% 30.31 in 10.0 mi SW 11.5 mph - N/A   Clear
10:53 AM 86.0 °F 87.3 °F 64.4 °F 48% 30.31 in 10.0 mi SSW 15.0 mph - N/A   Clear
11:14 AM 87.8 °F 89.4 °F 64.4 °F 46% 30.31 in 10.0 mi SW 12.7 mph 17.3 mph N/A   Clear
11:34 AM 87.8 °F 89.4 °F 64.4 °F 46% 30.31 in 10.0 mi WSW 10.4 mph 16.1 mph N/A   Clear
11:54 AM 87.8 °F 89.4 °F 64.4 °F 46% 30.31 in 10.0 mi SW 12.7 mph 17.3 mph N/A   Clear
12:13 PM 87.8 °F 88.5 °F 62.6 °F 43% 30.31 in 10.0 mi SW 9.2 mph - N/A   Clear
12:34 PM 89.6 °F 90.1 °F 62.6 °F 40% 30.30 in 10.0 mi SW 12.7 mph 16.1 mph N/A   Clear
12:54 PM 89.6 °F 90.1 °F 62.6 °F 40% 30.30 in 10.0 mi SW 11.5 mph 16.1 mph N/A   Clear
1:13 PM 89.6 °F 90.1 °F 62.6 °F 40% 30.29 in 10.0 mi SW 13.8 mph 18.4 mph N/A   Clear
1:34 PM 89.6 °F 90.1 °F 62.6 °F 40% 30.29 in 10.0 mi SW 6.9 mph 16.1 mph N/A   Clear
1:54 PM 89.6 °F 90.1 °F 62.6 °F 40% 30.28 in 10.0 mi SW 11.5 mph 16.1 mph N/A   Scattered Clouds
2:13 PM 91.4 °F 91.4 °F 60.8 °F 36% 30.27 in 10.0 mi South 11.5 mph - N/A   Scattered Clouds
2:34 PM 91.4 °F 92.1 °F 62.6 °F 38% 30.26 in 10.0 mi SW 10.4 mph 17.3 mph N/A   Scattered Clouds
2:54 PM 91.4 °F 91.4 °F 60.8 °F 36% 30.26 in 10.0 mi SW 11.5 mph - N/A   Scattered Clouds
3:13 PM 91.4 °F 91.4 °F 60.8 °F 36% 30.25 in 10.0 mi SSW 9.2 mph 18.4 mph N/A   Scattered Clouds
3:34 PM 91.4 °F 91.4 °F 60.8 °F 36% 30.25 in 10.0 mi SW 11.5 mph - N/A   Scattered Clouds
3:54 PM 91.4 °F 91.4 °F 60.8 °F 36% 30.24 in 10.0 mi SSW 10.4 mph - N/A   Clear
4:13 PM 93.2 °F 93.3 °F 60.8 °F 34% 30.23 in 10.0 mi SSW 9.2 mph - N/A   Scattered Clouds
4:34 PM 91.4 °F 91.4 °F 60.8 °F 36% 30.23 in 10.0 mi WSW 11.5 mph - N/A   Scattered Clouds
4:54 PM 91.4 °F 92.1 °F 62.6 °F 38% 30.22 in 10.0 mi SW 11.5 mph 18.4 mph N/A   Scattered Clouds
5:13 PM 91.4 °F 92.1 °F 62.6 °F 38% 30.22 in 10.0 mi SSW 12.7 mph - N/A   Clear
5:34 PM 91.4 °F 92.1 °F 62.6 °F 38% 30.22 in 10.0 mi SW 9.2 mph 16.1 mph N/A   Clear
5:53 PM 91.4 °F 92.1 °F 62.6 °F 38% 30.21 in 10.0 mi SSW 10.4 mph - N/A   Clear
6:14 PM 91.4 °F 91.4 °F 60.8 °F 36% 30.21 in 10.0 mi SW 13.8 mph - N/A   Clear
6:34 PM 91.4 °F 91.4 °F 60.8 °F 36% 30.20 in 10.0 mi SW 10.4 mph - N/A   Clear
6:53 PM 89.6 °F 90.1 °F 62.6 °F 40% 30.20 in 10.0 mi SW 8.1 mph - N/A   Clear
7:14 PM 89.6 °F 90.1 °F 62.6 °F 40% 30.20 in 10.0 mi SW 8.1 mph - N/A   Clear
7:34 PM 89.6 °F 91.1 °F 64.4 °F 43% 30.19 in 10.0 mi SW 8.1 mph - N/A   Clear
7:53 PM 87.8 °F 89.4 °F 64.4 °F 46% 30.19 in 10.0 mi SSW 8.1 mph - N/A   Clear
8:14 PM 87.8 °F 89.4 °F 64.4 °F 46% 30.19 in 10.0 mi SSW 5.8 mph - N/A   Clear
8:34 PM 86.0 °F 88.2 °F 66.2 °F 51% 30.19 in 10.0 mi SSW 5.8 mph - N/A   Clear
8:53 PM 84.2 °F 86.6 °F 66.2 °F 55% 30.19 in 10.0 mi SSW 6.9 mph - N/A   Clear
9:14 PM 82.4 °F 84.6 °F 66.2 °F 58% 30.19 in 10.0 mi South 5.8 mph - N/A   Clear
9:34 PM 80.6 °F 83.2 °F 68.0 °F 65% 30.19 in 10.0 mi SSW 5.8 mph - N/A   Clear
9:53 PM 80.6 °F 83.2 °F 68.0 °F 65% 30.19 in 10.0 mi SSW 5.8 mph - N/A   Clear
10:14 PM 80.6 °F 83.2 °F 68.0 °F 65% 30.19 in 10.0 mi South 5.8 mph - N/A   Clear
10:34 PM 80.6 °F 83.2 °F 68.0 °F 65% 30.19 in 10.0 mi SSW 5.8 mph - N/A   Clear
10:53 PM 78.8 °F - 68.0 °F 69% 30.18 in 10.0 mi South 5.8 mph - N/A   Clear
11:14 PM 78.8 °F - 68.0 °F 69% 30.18 in 10.0 mi South 3.5 mph - N/A   Clear
11:34 PM 77.0 °F - 68.0 °F 74% 30.18 in 10.0 mi South 5.8 mph - N/A   Clear
11:53 PM 77.0 °F - 68.0 °F 74% 30.17 in 10.0 mi South 5.8 mph - N/A   Clear